ONEWEB-0707, 61612

Orbit data source: Space-Track

ONEWEB-0707, 61612 is a payload satellite owned by Eut. One Web (UK) in LEO that was launched on Sun, 20 Oct 2024 UTC via an FALCON 9 launch vehicle from the Air Force Western Test Range (AFWTR). Payload-class satellites include a variety of spacecraft equipped with specific instruments for various scientific and technological missions. These include communications satellites like Starlink; space stations such as the ISS; scientific satellites like the Hubble; Earth observation satellites from companies like Planet Labs, Umbra, and HawkEye 360; GPS; miniature CubeSats for education and research; and military/defense satellites.

Loading next visibility...
Identifier
61612, 2024-188U
Orbit
LEO
Last TLE update
2 days ago
Origin
Manufacturer
One Web
Mission
Operational Commercial Communications
Bus & Motor
ARROW, Unknown motor
Mass
148 kg wet, ~140 kg dry
Launch date (UTC)
2024-10-20 (6 months ago)
Launch vehicle
FALCON 9
Launch site
Air Force Western Test Range (AFWTR)
Object type
Payload
Rocket body
Debris
Shape & HBR
Trap Box + 2 Pan, 5 m
Radar Cross Section
2.032 m², Large (>1 m²)

Expand to show TLE details & history

TLE from 2 days ago
0 ONEWEB-0707
1 61612U 24188U   25118.97935574 -.00002389  00000-0 -68791-2 0  9992
2 61612  87.8789 118.8246 0002245 109.5295 250.6075 13.10392065 27115
Epoch: 2025-04-28T23:30Z
Definitive object data (Epoch: 2025-04-28T23:30:16.335Z)
Latitude
-0.00004°
Longitude
-90.92907°
Altitude
1,225.097 km
Speed
7.242 km/s
True Right ascension
07h 55m 17s
True Declination
0° 00' 00"
Sunlit
Object was in daylight at TLE epoch
Visualization TLE readout
Latitude
-84.39642°
Longitude
110.73998°
Altitude
1,251.938 km
Speed
7.228 km/s
Apparent Right ascension
18h 38m 49s
Apparent Declination
-64° 57' 23"
Sunlit
Object is in daylight
Visualization observer readout
Local Sidereal Time
06:15:57
Azimuth
185.672° SSW
Elevation
-64.742°
Doppler factor
1
Orbital elements
Apogee altitude
1,220.468 km
Perigee altitude
1,217.057 km
Semi-major axis
7,596.9 km
Eccentricity
0.0002245
Inclination
87.8789°
RAAN
118.8246°
Arg. of periapsis
109.5295°
True anomaly
250.58324°
Mean anomaly
250.6075°
Eccentric anomaly
250.59537°
Mean motion
3.27785 °/min
BSTAR
-0.0068791
Orbital period
109.83 mins
Loading maneuver chart data...
Loading SW <> Apogee altitude chart data...
Loading historical data...
Loading historical data...
Loading historical data...
Loading historical data...
Loading historical data...
Loading historical data...
Loading historical data...

ONEWEB-0707 Visibility forecast

Observer location: undefined°, undefined°

Span
Click to sort rows by Start time (UTC) header in descending order
Start Az.
Max El. time (UTC)
Max El. Az.
Max El.
End time (UTC)
End Az.
12 mins2025-04-30 23:15:56.082Z136.624° SSE2025-04-30 23:21:56.082Z73.964° E28.801°2025-04-30 23:27:56.082Z19.043° NNE
12 mins2025-05-01 01:05:56.082Z212.447° SW2025-05-01 01:10:56.082Z268.529° W34.418°2025-05-01 01:17:56.082Z346.539° N
10 mins2025-05-01 10:46:56.082Z33.965° NE2025-05-01 10:50:56.082Z76.255° E24.389°2025-05-01 10:56:56.082Z132.561° SE
12 mins2025-05-01 12:35:56.082Z345.816° N2025-05-01 12:40:56.082Z288.225° WNW38.739°2025-05-01 12:47:56.082Z202.677° SW
|